[[{"header":{"parameterUnit":"m.s-1","parameterCategory":2,"la1":30.2991,"la2":30.254,"lo1":-89.0895,"lo2":-89.0444,"dy":0.0017,"dx":0.0017,"nx":28,"ny":28,"refTime":"2024-10-02T21:00:00:Z","depth":"0","parameterNumber":2,"parameterNumberName":"U-component_of_CURRENTS"},"data":[0,0,0,0,0,0,0,0,0,0,0,0,0,0,0,0,0,0,0,0,0,0,0,0,0,0,0,0,0,0,0,0,0,0,0,0,0,0,0,0,0,0,0,0,0,0,0,0,0,0,0,0,0,0,0,0,0,0,0.2119,0.2119,0,0.2151,0.2151,0.2151,0.2147,0.2147,0.2147,0.2147,0.2115,0.2114,0.2113,0,0,0,0,0,0,0,0,0,0,0,0,0,0.2039,0.204,0.2118,0.2119,0.212,0.2151,0.2151,0.2151,0.2147,0.2147,0.2147,0.2147,0.2115,0.2114,0.2113,0,0,0,0,0,0,0,0,0,0,0,0,0,0.2069,0.2041,0.2118,0.2125,0.2126,0.2151,0.2151,0.2151,0.2147,0.2147,0.2147,0.2147,0.2115,0.2114,0.2113,0.2111,0,0,0.211,0.2109,0,0,0,0,0,0,0,0,0.2067,0.2071,0.2123,0.2124,0.2126,0.2148,0.2111,0.2136,0.2147,0.2135,0.2147,0.2147,0.2123,0.2121,0.2123,0.2109,0.2108,0.211,0.2109,0.2109,0.2108,0,0,0,0,0,0,0,0.2065,0.207,0.2127,0.2124,0.2126,0.2121,0.2125,0.2116,0.2125,0.2136,0.2137,0.2147,0.2122,0.2124,0.2122,0.2108,0.211,0.2109,0.2108,0.2108,0.2101,0.2101,0,0,0,0,0,0,0.2071,0.2068,0.2126,0.2129,0.21,0.2123,0.2127,0.2138,0.2127,0.2127,0.2147,0.2147,0.2126,0.2123,0.2121,0.2122,0.2109,0.2108,0.2107,0.21,0.2101,0.2101,0,0,0,0,0,0,0.2069,0.2075,0.2125,0.2102,0.2109,0.2125,0.2137,0.2139,0.2145,0.2137,0.2134,0.2153,0.2126,0.2122,0.2116,0.2121,0.2107,0.2106,0.21,0.21,0.2101,0.2122,0,0,0,0,0,0,0.2066,0.2074,0.208,0.2103,0.211,0.2143,0.2138,0.214,0.2153,0.2153,0.2141,0.2137,0.2125,0.2117,0.2115,0.2119,0.2105,0.2099,0.21,0.2101,0.2121,0.2124,0.2126,0,0,0,0,0,0.2063,0.2075,0.208,0.2087,0.2119,0.2144,0.2146,0.2155,0.2154,0.2158,0.2149,0.2138,0.2121,0.2117,0.2113,0.2118,0.2099,0.21,0.2101,0.212,0.2123,0.2126,0,0,0,0,0,0,0.2041,0.2076,0.2083,0.2104,0.2124,0.2144,0.2153,0.2159,0.2157,0.2155,0.2141,0.2137,0.2136,0.2125,0.2121,0.2119,0.2109,0.2109,0.2125,0.2128,0.213,0.2132,0.2104,0,0,0,0,0,0.2041,0.2058,0.2089,0.2104,0.2118,0.2136,0.2146,0.2154,0.216,0.2159,0.2149,0.2141,0.2137,0.2131,0.2125,0.2121,0.213,0.2123,0.2125,0.2127,0.2127,0.2154,0.2159,0.2105,0.2105,0.2105,0,0,0.2035,0.2059,0.2067,0.2101,0.2117,0.2131,0.214,0.2162,0.2165,0.2155,0.2149,0.2149,0.214,0.2137,0.2135,0.2128,0.2149,0.2128,0.213,0.2129,0.2156,0.2161,0.2166,0.2105,0.2105,0.2105,0,0,0.2033,0.2057,0.2069,0.2088,0.212,0.2132,0.214,0.2162,0.2166,0.2166,0.2163,0.2168,0.2152,0.2153,0.215,0.2163,0.2164,0.216,0.2168,0.2195,0.2199,0.2204,0.223,0.2237,0.2157,0.2157,0.2157,0,0.2024,0.2045,0.2075,0.2091,0.2104,0.2132,0.2142,0.2153,0.2164,0.2171,0.2164,0.2169,0.216,0.217,0.2173,0.2168,0.2183,0.2157,0.2198,0.2203,0.2207,0.2233,0.224,0.2158,0.2158,0.2158,0.2158,0,0.203,0.2045,0.2057,0.2083,0.2099,0.2116,0.214,0.2151,0.2158,0.2169,0.2185,0.2183,0.2188,0.2188,0.218,0.2206,0.2208,0.2202,0.2192,0.2214,0.2239,0.2246,0.216,0.216,0.2159,0.2159,0,0,0.2006,0.2051,0.2052,0.2061,0.2097,0.2109,0.2126,0.215,0.2166,0.2176,0.2196,0.2196,0.221,0.2208,0.2211,0.2228,0.227,0.2225,0.2226,0.2252,0.2333,0.2341,0.2349,0.2273,0.2274,0.2275,0.2342,0,0.1998,0.2018,0.2045,0.2055,0.2066,0.2099,0.2115,0.214,0.2161,0.2187,0.2207,0.2226,0.2215,0.2226,0.2243,0.2269,0.2288,0.2253,0.2306,0.2308,0.2314,0.2357,0.2299,0.2354,0.2349,0.235,0.2351,0,0.1987,0.2003,0.2013,0.2047,0.2057,0.2065,0.2101,0.2121,0.2171,0.2193,0.2223,0.2245,0.2281,0.2266,0.2322,0.2302,0.2315,0.2331,0.2334,0.2338,0.2329,0.233,0.2367,0.2334,0.2361,0.236,0.2359,0,0.1945,0.1978,0.1982,0.1992,0.2036,0.2045,0.2069,0.2116,0.2146,0.2201,0.2238,0.2278,0.2317,0.2338,0.2376,0.2352,0.2443,0.2413,0.2433,0.2433,0.2392,0.2387,0.2402,0.2446,0.2446,0.2446,0.2446,0,0.1921,0.1923,0.1961,0.1962,0.1976,0.2016,0.204,0.2079,0.2142,0.2185,0.2239,0.2289,0.2338,0.2397,0.2403,0.2457,0.2469,0.2448,0.2457,0.2398,0.2394,0.2368,0.2345,0.2449,0.2448,0.2448,0.2447,0,0.1871,0.1897,0.1904,0.1943,0.1955,0.1962,0.2021,0.2046,0.2119,0.218,0.2205,0.2316,0.2402,0.2454,0.2514,0.2507,0.2483,0.2551,0.2485,0.2484,0.2449,0.2429,0.2344,0.2253,0.2575,0.2576,0.2577,0,0.1846,0.1846,0.1878,0.1882,0.1897,0.1919,0.1943,0.2018,0.2059,0.2192,0.2228,0.2347,0.243,0.2547,0.2572,0.2614,0.2516,0.2561,0.2494,0.2456,0.2439,0.2318,0.2236,0.2449,0.2449,0.2448,0.2448,0,0.1799,0.1812,0.1821,0.1834,0.1848,0.1868,0.1912,0.1942,0.2043,0.2114,0.2232,0.2315,0.2472,0.2519,0.2596,0.2597,0.2449,0.2553,0.2527,0.236,0.2213,0.2127,0.2401,0.2444,0.2445,0.2445,0.2445,0.2445,0.1762,0.1758,0.1774,0.1781,0.1797,0.1808,0.1804,0.1875,0.1935,0.2029,0.2162,0.2266,0.2422,0.254,0.2532,0.2512,0.2442,0.2437,0.2423,0.2309,0.219,0.2464,0.2508,0.2509,0.251,0.251,0.2511,0,0.1712,0.1716,0.1721,0.1721,0.1711,0.1742,0.1777,0.1769,0.1811,0.194,0.2037,0.2204,0.2302,0.2403,0.2476,0.24,0.2247,0.2332,0.2146,0.2074,0.2349,0.2315,0.2303,0.2303,0.2303,0.2303,0.2303,0.2303,0.1683,0.1669,0.1674,0.1634,0.1631,0.1594,0.1593,0.1606,0.1675,0.1765,0.1865,0.1977,0.2231,0.2423,0.2413,0.2337,0.2124,0.205,0.1997,0.2224,0.2231,0.2238,0.2202,0.2166,0.2166,0.1623,0.1619,0.1617]},{"header":{"parameterUnit":"m.s-1","parameterCategory":2,"la1":30.2991,"la2":30.254,"lo1":-89.0895,"lo2":-89.0444,"dy":0.0017,"dx":0.0017,"nx":28,"ny":28,"refTime":"2024-10-02T21:00:00:Z","depth":"0","parameterNumber":3,"parameterNumberName":"V-component_of_CURRENTS"},"data":[0,0,0,0,0,0,0,0,0,0,0,0,0,0,0,0,0,0,0,0,0,0,0,0,0,0,0,0,0,0,0,0,0,0,0,0,0,0,0,0,0,0,0,0,0,0,0,0,0,0,0,0,0,0,0,0,0,0,-0.0073,-0.0073,0,-0.0144,-0.0145,-0.0146,-0.0194,-0.0194,-0.0194,-0.0195,-0.0266,-0.0268,-0.027,0,0,0,0,0,0,0,0,0,0,0,0,0,-0.0011,-0.0012,-0.0073,-0.0073,-0.0074,-0.0144,-0.0145,-0.0146,-0.0194,-0.0194,-0.0195,-0.0195,-0.0266,-0.0268,-0.027,0,0,0,0,0,0,0,0,0,0,0,0,0,-0.0056,-0.0012,-0.0072,-0.0106,-0.011,-0.0144,-0.0145,-0.0146,-0.0194,-0.0194,-0.0195,-0.0195,-0.0265,-0.0268,-0.027,-0.0276,0,0,-0.0277,-0.0278,0,0,0,0,0,0,0,0,-0.0053,-0.0058,-0.01,-0.0104,-0.0108,-0.016,-0.015,-0.0189,-0.0194,-0.0162,-0.0195,-0.0195,-0.023,-0.0236,-0.0249,-0.0279,-0.0282,-0.0278,-0.0279,-0.028,-0.0281,0,0,0,0,0,0,0,-0.005,-0.0055,-0.0101,-0.0101,-0.0106,-0.0129,-0.0136,-0.0157,-0.0193,-0.0165,-0.0169,-0.0176,-0.0233,-0.0246,-0.0251,-0.0283,-0.0278,-0.028,-0.0281,-0.0282,-0.0313,-0.0312,0,0,0,0,0,0,-0.0038,-0.0052,-0.0099,-0.0103,-0.0081,-0.013,-0.0137,-0.0143,-0.0193,-0.0201,-0.0175,-0.0178,-0.0242,-0.0248,-0.0253,-0.0248,-0.028,-0.0282,-0.0284,-0.0313,-0.0312,-0.0312,0,0,0,0,0,0,-0.0037,-0.0042,-0.0096,-0.0079,-0.0088,-0.013,-0.0137,-0.0144,-0.0156,-0.0201,-0.0209,-0.0179,-0.0242,-0.025,-0.0265,-0.0252,-0.0283,-0.0286,-0.0314,-0.0313,-0.0312,-0.0247,0,0,0,0,0,0,-0.0034,-0.004,-0.0038,-0.0078,-0.0088,-0.0106,-0.0137,-0.0146,-0.016,-0.0164,-0.0206,-0.0214,-0.0243,-0.0261,-0.0267,-0.0256,-0.0288,-0.0315,-0.0314,-0.0312,-0.025,-0.0244,-0.0239,0,0,0,0,0,-0.0032,-0.0025,-0.0037,-0.0043,-0.0084,-0.0105,-0.0112,-0.0144,-0.0159,-0.0158,-0.0187,-0.0212,-0.0258,-0.0262,-0.027,-0.0259,-0.0315,-0.0314,-0.0312,-0.0252,-0.0245,-0.0239,0,0,0,0,0,0,0.0002,-0.0031,-0.0045,-0.0048,-0.007,-0.0113,-0.0115,-0.0137,-0.016,-0.0163,-0.0205,-0.0214,-0.0223,-0.0248,-0.0252,-0.0264,-0.029,-0.029,-0.0242,-0.0235,-0.023,-0.0219,-0.029,0,0,0,0,0,0.0012,0.0009,-0.0026,-0.0027,-0.0035,-0.0073,-0.0085,-0.0106,-0.0134,-0.0145,-0.0174,-0.0203,-0.0223,-0.0234,-0.0257,-0.0263,-0.029,-0.026,-0.0254,-0.025,-0.0245,-0.0273,-0.027,-0.0307,-0.0307,-0.0307,0,0,0.0023,0.0006,0.0004,-0.002,-0.004,-0.0043,-0.0081,-0.0093,-0.0096,-0.0148,-0.0155,-0.0184,-0.022,-0.0227,-0.0233,-0.0246,-0.0252,-0.0248,-0.0243,-0.0242,-0.0271,-0.0268,-0.0265,-0.0306,-0.0306,-0.0306,0,0,0.0049,0.0033,0.004,0.0027,0.0004,-0.0017,-0.0016,-0.0052,-0.0066,-0.0079,-0.0114,-0.0132,-0.0167,-0.0188,-0.0203,-0.0179,-0.0221,-0.0187,-0.015,-0.0177,-0.0174,-0.0172,-0.0196,-0.0197,-0.0184,-0.0184,-0.0183,0,0.0065,0.0066,0.004,0.0045,0.0039,-0.0,0.0008,-0.001,-0.0045,-0.0052,-0.0071,-0.0118,-0.0147,-0.0156,-0.0149,-0.0166,-0.019,-0.0172,-0.0169,-0.0168,-0.0167,-0.0193,-0.0194,-0.018,-0.0181,-0.0181,-0.0181,0,0.0093,0.0096,0.0101,0.0095,0.0088,0.0089,0.0062,0.0057,0.0034,0.0009,-0.0006,-0.0048,-0.0076,-0.0087,-0.0113,-0.0116,-0.0137,-0.0159,-0.0185,-0.0159,-0.0188,-0.0191,-0.0175,-0.0177,-0.0178,-0.0178,0,0,0.0125,0.0122,0.0124,0.0132,0.0114,0.0113,0.0117,0.0105,0.0109,0.0073,0.0072,0.0035,0.0006,-0.0013,-0.0048,-0.0071,-0.0083,-0.0107,-0.011,-0.0128,-0.0142,-0.0153,-0.0158,-0.0106,-0.0107,-0.0107,-0.0163,0,0.0155,0.0178,0.0166,0.019,0.0199,0.0175,0.0183,0.0169,0.0148,0.0139,0.0095,0.0079,0.0036,0.0024,-0.0004,-0.0063,-0.0088,-0.0066,-0.0167,-0.017,-0.0181,-0.0161,-0.0144,-0.0193,-0.0166,-0.0167,-0.0167,0,0.0186,0.0197,0.0224,0.0238,0.0241,0.0248,0.0254,0.0256,0.0234,0.0216,0.0188,0.0151,0.0117,0.0074,-0.0011,0.0004,-0.0061,-0.0111,-0.0115,-0.015,-0.0186,-0.0216,-0.0199,-0.0314,-0.0172,-0.0172,-0.0171,0,0.022,0.024,0.0264,0.0267,0.0274,0.0284,0.0288,0.0277,0.0291,0.0263,0.0265,0.0209,0.0188,0.0102,0.0004,-0.0006,-0.0095,-0.0125,-0.0197,-0.0199,-0.0216,-0.0219,-0.032,-0.0187,-0.0186,-0.0186,-0.0186,0,0.0254,0.0274,0.0281,0.0294,0.0329,0.032,0.0351,0.0345,0.0348,0.0372,0.0307,0.0317,0.0194,0.0131,0.0027,-0.0086,-0.0079,-0.0185,-0.0212,-0.0193,-0.0193,-0.032,-0.0398,-0.0188,-0.0188,-0.0188,-0.0187,0,0.0283,0.0287,0.0318,0.0335,0.0344,0.0368,0.0399,0.0425,0.0415,0.0445,0.0443,0.04,0.0321,0.0193,0.0058,-0.0046,-0.0238,-0.0207,-0.0173,-0.0195,-0.037,-0.0445,-0.0601,-0.067,-0.0296,-0.0296,-0.0297,0,0.0299,0.0317,0.035,0.0374,0.0382,0.0416,0.0445,0.0455,0.0491,0.0505,0.0533,0.0474,0.0456,0.0253,0.0059,-0.0126,-0.0255,-0.0247,-0.0265,-0.0373,-0.0476,-0.054,-0.0592,-0.0265,-0.0265,-0.0265,-0.0265,0,0.0333,0.0342,0.0367,0.0417,0.0452,0.0498,0.0544,0.0588,0.0609,0.0646,0.0692,0.0684,0.0497,0.0341,0.0078,-0.0068,-0.0341,-0.0256,-0.0378,-0.0467,-0.0533,-0.0613,-0.0237,-0.0266,-0.0266,-0.0266,-0.0266,-0.0266,0.0358,0.0382,0.0416,0.0465,0.0511,0.0578,0.063,0.0698,0.0777,0.0852,0.0828,0.0851,0.0598,0.0257,0.0037,-0.0341,-0.0363,-0.0444,-0.0528,-0.0583,-0.0647,-0.0271,-0.0323,-0.0323,-0.0324,-0.0324,-0.0324,0,0.0391,0.0418,0.0464,0.0523,0.0581,0.0599,0.0697,0.0766,0.0882,0.0961,0.1013,0.0918,0.0595,0.0241,-0.0254,-0.0535,-0.0667,-0.0703,-0.079,-0.0832,-0.0498,-0.0492,-0.057,-0.057,-0.0569,-0.0569,-0.0569,-0.0569,0.041,0.0457,0.0479,0.0571,0.0617,0.071,0.0774,0.0891,0.0982,0.1098,0.1139,0.1139,0.0888,-0.0005,-0.0624,-0.0789,-0.1021,-0.1075,-0.1194,-0.0957,-0.0939,-0.0922,-0.0933,-0.1102,-0.1103,-0.148,-0.1484,-0.1486]}],[{"header":{"parameterUnit":"m.s-1","parameterCategory":2,"la1":30.2991,"la2":30.254,"lo1":-89.0895,"lo2":-89.0444,"dy":0.0017,"dx":0.0017,"nx":28,"ny":28,"refTime":"2024-10-02T21:00:00:Z","depth":"2","parameterNumber":2,"parameterNumberName":"U-component_of_CURRENTS"},"data":[0,0,0,0,0,0,0,0,0,0,0,0,0,0,0,0,0,0,0,0,0,0,0,0,0,0,0,0,0,0,0,0,0,0,0,0,0,0,0,0,0,0,0,0,0,0,0,0,0,0,0,0,0,0,0,0,0,0,0.2115,0.2115,0,0.2149,0.2149,0.2149,0.2157,0.2157,0.2157,0.2157,0.2141,0.2141,0.214,0,0,0,0,0,0,0,0,0,0,0,0,0,0.2045,0.2046,0.2115,0.2116,0.2116,0.2149,0.2149,0.2149,0.2157,0.2157,0.2157,0.2157,0.2141,0.2141,0.214,0,0,0,0,0,0,0,0,0,0,0,0,0,0.2074,0.2046,0.2115,0.2126,0.2127,0.2149,0.2149,0.2149,0.2157,0.2157,0.2157,0.2157,0.2141,0.2141,0.214,0.2136,0,0,0.2138,0.2138,0,0,0,0,0,0,0,0,0.2072,0.2076,0.2124,0.2125,0.2127,0.2151,0.2119,0.2143,0.2157,0.2143,0.2157,0.2157,0.2141,0.2141,0.2144,0.2135,0.2135,0.2138,0.2138,0.2137,0.2137,0,0,0,0,0,0,0,0.207,0.2075,0.2126,0.2124,0.2126,0.2125,0.2129,0.2123,0.2139,0.2144,0.2146,0.2154,0.2142,0.2145,0.2144,0.2134,0.2138,0.2137,0.2137,0.2137,0.2139,0.214,0,0,0,0,0,0,0.2072,0.2073,0.2125,0.2127,0.2102,0.2127,0.2131,0.2141,0.214,0.2141,0.2154,0.2154,0.2146,0.2144,0.2143,0.2152,0.2137,0.2137,0.2136,0.2139,0.2139,0.214,0,0,0,0,0,0,0.2071,0.2077,0.2123,0.2103,0.2109,0.2129,0.2139,0.2142,0.2154,0.2148,0.2148,0.2165,0.2146,0.2144,0.2144,0.2151,0.2136,0.2136,0.2138,0.2139,0.214,0.2162,0,0,0,0,0,0,0.2069,0.2076,0.2083,0.2103,0.211,0.2141,0.214,0.2143,0.216,0.2161,0.2157,0.2155,0.2146,0.2145,0.2144,0.215,0.2135,0.2138,0.2139,0.2139,0.216,0.2163,0.2165,0,0,0,0,0,0.2066,0.2078,0.2083,0.209,0.212,0.2142,0.2145,0.2157,0.2161,0.2167,0.2165,0.2156,0.215,0.2145,0.2143,0.2149,0.2137,0.2138,0.2139,0.2159,0.2163,0.2165,0,0,0,0,0,0,0.205,0.2081,0.2087,0.2108,0.2125,0.2144,0.2156,0.2163,0.2168,0.217,0.216,0.2158,0.2163,0.2154,0.2149,0.2153,0.2143,0.2143,0.2159,0.2161,0.2164,0.2165,0.2135,0,0,0,0,0,0.2051,0.2069,0.2094,0.2109,0.2123,0.214,0.2152,0.2161,0.217,0.2173,0.2168,0.2165,0.2164,0.2161,0.2158,0.2158,0.2166,0.2162,0.2164,0.2166,0.2167,0.2192,0.2197,0.2143,0.2143,0.2143,0,0,0.2048,0.2069,0.2077,0.2107,0.2124,0.2137,0.2147,0.217,0.2176,0.2169,0.2172,0.2174,0.2168,0.217,0.217,0.2162,0.2187,0.2167,0.2169,0.2168,0.2193,0.2199,0.2203,0.2144,0.2144,0.2144,0,0,0.2049,0.2072,0.2085,0.2102,0.2133,0.2143,0.2153,0.2175,0.2182,0.2187,0.2187,0.2196,0.2186,0.2188,0.2186,0.2201,0.2202,0.2199,0.2208,0.2233,0.2238,0.2242,0.2265,0.2271,0.2197,0.2197,0.2197,0,0.2042,0.2063,0.2091,0.2107,0.212,0.2146,0.2157,0.217,0.2184,0.2193,0.2189,0.22,0.2195,0.2206,0.221,0.2206,0.222,0.2197,0.2237,0.2241,0.2245,0.2268,0.2274,0.2198,0.2198,0.2198,0.2198,0,0.205,0.2067,0.2079,0.2105,0.2121,0.2138,0.2161,0.2175,0.2185,0.2197,0.2216,0.2217,0.2224,0.2226,0.2218,0.2245,0.2246,0.2241,0.223,0.2252,0.2274,0.2281,0.22,0.2199,0.2199,0.2199,0,0,0.203,0.2075,0.2076,0.2086,0.2122,0.2133,0.2152,0.2176,0.2194,0.2207,0.2229,0.2233,0.2247,0.2247,0.225,0.2267,0.2307,0.2264,0.2265,0.2288,0.2366,0.2362,0.2369,0.2311,0.2312,0.2313,0.2372,0,0.2024,0.2045,0.2071,0.2084,0.2096,0.2128,0.2145,0.2171,0.2192,0.222,0.2241,0.2262,0.2252,0.2265,0.2281,0.2307,0.2324,0.2291,0.2339,0.2341,0.2336,0.2376,0.2182,0.2218,0.2379,0.238,0.238,0,0.2015,0.2032,0.2043,0.2079,0.2089,0.2099,0.2135,0.2155,0.2205,0.2228,0.2259,0.2281,0.2316,0.2303,0.2356,0.2338,0.235,0.2365,0.2367,0.236,0.2349,0.2221,0.2224,0.2391,0.239,0.2389,0.2389,0,0.1975,0.201,0.2016,0.2026,0.207,0.2081,0.2106,0.2152,0.2182,0.2237,0.2274,0.2313,0.2352,0.2371,0.2407,0.2385,0.2469,0.2441,0.2449,0.2449,0.229,0.2274,0.2473,0.2472,0.2472,0.2472,0.2472,0,0.1954,0.1958,0.1997,0.1998,0.2015,0.2055,0.208,0.2119,0.2181,0.2223,0.2276,0.2323,0.2373,0.2427,0.2432,0.2475,0.2492,0.2462,0.2468,0.2293,0.2278,0.2427,0.2421,0.2474,0.2474,0.2473,0.2473,0,0.1907,0.1933,0.1942,0.1982,0.1994,0.2004,0.2063,0.2089,0.2161,0.222,0.2245,0.235,0.2428,0.2476,0.2531,0.2521,0.2549,0.2554,0.2352,0.2334,0.25,0.2495,0.2561,0.2562,0.2562,0.2562,0.2563,0,0.1884,0.1884,0.1918,0.1923,0.1939,0.1964,0.1987,0.2062,0.2101,0.223,0.2263,0.2375,0.2442,0.2544,0.2547,0.2574,0.2589,0.24,0.2319,0.2512,0.2512,0.2506,0.25,0.2113,0.211,0.2107,0.2104,0,0.184,0.1853,0.1863,0.1877,0.1893,0.1913,0.1958,0.1986,0.2084,0.2148,0.2251,0.232,0.2444,0.2403,0.2461,0.2438,0.238,0.2347,0.26,0.2134,0.2098,0.2096,0.2102,0.208,0.2082,0.2084,0.2085,0.2086,0.1804,0.1802,0.1819,0.1827,0.1843,0.1854,0.1851,0.1913,0.1964,0.2032,0.2155,0.2191,0.2247,0.2247,0.2197,0.2158,0.2317,0.2187,0.2192,0.22,0.2151,0.2119,0.2095,0.2097,0.2099,0.2101,0.2103,0,0.1755,0.1762,0.1769,0.1771,0.1758,0.1792,0.1824,0.1805,0.183,0.1907,0.197,0.1859,0.1857,0.1903,0.1824,0.1851,0.1785,0.1757,0.1637,0.1666,0.1691,0.161,0.1413,0.1411,0.1408,0.1406,0,0,0.1729,0.1715,0.172,0.1681,0.1681,0.1648,0.1647,0.1634,0.1663,0.1638,0.1635,0.1763,0.1862,0.1602,0.159,0.1484,0.1549,0.1425,0.1987,0.1875,0.1896,0.1962,0.1876,0,0,0,0,0]},{"header":{"parameterUnit":"m.s-1","parameterCategory":2,"la1":30.2991,"la2":30.254,"lo1":-89.0895,"lo2":-89.0444,"dy":0.0017,"dx":0.0017,"nx":28,"ny":28,"refTime":"2024-10-02T21:00:00:Z","depth":"2","parameterNumber":3,"parameterNumberName":"V-component_of_CURRENTS"},"data":[0,0,0,0,0,0,0,0,0,0,0,0,0,0,0,0,0,0,0,0,0,0,0,0,0,0,0,0,0,0,0,0,0,0,0,0,0,0,0,0,0,0,0,0,0,0,0,0,0,0,0,0,0,0,0,0,0,0,-0.0026,-0.0026,0,-0.0086,-0.0087,-0.0088,-0.0135,-0.0136,-0.0136,-0.0136,-0.0209,-0.0211,-0.0212,0,0,0,0,0,0,0,0,0,0,0,0,0,0.0019,0.0018,-0.0026,-0.0026,-0.0027,-0.0086,-0.0087,-0.0088,-0.0135,-0.0136,-0.0136,-0.0136,-0.0209,-0.0211,-0.0212,0,0,0,0,0,0,0,0,0,0,0,0,0,-0.0018,0.0018,-0.0025,-0.0057,-0.006,-0.0086,-0.0087,-0.0088,-0.0135,-0.0136,-0.0136,-0.0137,-0.0208,-0.021,-0.0213,-0.0217,0,0,-0.022,-0.0221,0,0,0,0,0,0,0,0,-0.0016,-0.002,-0.0052,-0.0055,-0.0058,-0.0103,-0.0098,-0.0132,-0.0135,-0.0108,-0.0136,-0.0137,-0.0174,-0.0179,-0.019,-0.022,-0.0223,-0.022,-0.0222,-0.0223,-0.0223,0,0,0,0,0,0,0,-0.0013,-0.0017,-0.0051,-0.0052,-0.0056,-0.0078,-0.0084,-0.0105,-0.0138,-0.011,-0.0113,-0.0118,-0.0176,-0.0188,-0.0193,-0.0224,-0.022,-0.0222,-0.0224,-0.0225,-0.0264,-0.0263,0,0,0,0,0,0,-0.0001,-0.0015,-0.0049,-0.0052,-0.0037,-0.0078,-0.0085,-0.0089,-0.0138,-0.0145,-0.0118,-0.012,-0.0184,-0.019,-0.0195,-0.0198,-0.0223,-0.0225,-0.0226,-0.0264,-0.0263,-0.0263,0,0,0,0,0,0,-0.0,-0.0004,-0.0046,-0.0034,-0.0041,-0.0078,-0.0083,-0.009,-0.0104,-0.0143,-0.0151,-0.0124,-0.0184,-0.0192,-0.021,-0.0201,-0.0226,-0.0228,-0.0264,-0.0264,-0.0263,-0.0205,0,0,0,0,0,0,0.0001,-0.0003,-0.0001,-0.0033,-0.0041,-0.0056,-0.0082,-0.0091,-0.0105,-0.0109,-0.0151,-0.0159,-0.0185,-0.0207,-0.0213,-0.0205,-0.023,-0.0265,-0.0264,-0.0263,-0.0208,-0.0203,-0.0199,0,0,0,0,0,0.0003,0.001,-0.0,-0.0004,-0.0037,-0.0055,-0.0061,-0.009,-0.0105,-0.0106,-0.0134,-0.0157,-0.0206,-0.0208,-0.0216,-0.0208,-0.0265,-0.0264,-0.0263,-0.021,-0.0204,-0.0199,0,0,0,0,0,0,0.0029,0.0005,-0.0007,-0.0008,-0.0027,-0.0063,-0.0066,-0.0086,-0.011,-0.0114,-0.0153,-0.0162,-0.0175,-0.0198,-0.02,-0.0217,-0.0239,-0.024,-0.0196,-0.0191,-0.0186,-0.0174,-0.0232,0,0,0,0,0,0.0037,0.0036,0.0009,0.0008,0.0002,-0.0031,-0.0042,-0.0061,-0.0086,-0.0098,-0.0127,-0.0155,-0.0176,-0.0189,-0.0212,-0.022,-0.0244,-0.022,-0.0216,-0.0211,-0.0206,-0.0233,-0.023,-0.026,-0.026,-0.026,0,0,0.0046,0.0034,0.0033,0.0014,-0.0003,-0.0006,-0.0039,-0.005,-0.0054,-0.0101,-0.0113,-0.0141,-0.0175,-0.0185,-0.0193,-0.0204,-0.0215,-0.021,-0.0206,-0.0204,-0.0232,-0.0229,-0.0227,-0.0259,-0.0259,-0.026,0,0,0.0068,0.0056,0.0063,0.0052,0.0033,0.0014,0.0014,-0.0018,-0.0032,-0.0046,-0.0079,-0.0099,-0.0134,-0.0154,-0.017,-0.0153,-0.019,-0.0161,-0.0129,-0.0154,-0.0152,-0.015,-0.0173,-0.0174,-0.0159,-0.0159,-0.0159,0,0.0081,0.0085,0.0063,0.0067,0.0063,0.0028,0.0035,0.0018,-0.0016,-0.0022,-0.0042,-0.0088,-0.0118,-0.0129,-0.0125,-0.0142,-0.0163,-0.0145,-0.0148,-0.0147,-0.0146,-0.017,-0.0172,-0.0156,-0.0156,-0.0156,-0.0157,0,0.0107,0.011,0.0115,0.0111,0.0104,0.0105,0.0081,0.0073,0.0051,0.0029,0.0011,-0.003,-0.0057,-0.0069,-0.0094,-0.01,-0.0118,-0.0138,-0.016,-0.0139,-0.0166,-0.0169,-0.0152,-0.0153,-0.0154,-0.0154,0,0,0.0135,0.0134,0.0136,0.0144,0.0128,0.0127,0.0128,0.0117,0.0121,0.0084,0.0083,0.0043,0.0016,-0.0003,-0.0036,-0.0059,-0.0074,-0.0092,-0.0095,-0.0111,-0.0129,-0.014,-0.0145,-0.0095,-0.0096,-0.0096,-0.0149,0,0.0163,0.0185,0.0175,0.0196,0.0206,0.0183,0.0189,0.0175,0.0155,0.0146,0.0102,0.0086,0.0043,0.0032,0.0003,-0.0053,-0.0079,-0.0057,-0.0151,-0.0153,-0.0162,-0.0148,-0.0129,-0.0175,-0.0152,-0.0152,-0.0153,0,0.0192,0.0203,0.0228,0.0243,0.0246,0.0252,0.0257,0.0258,0.0237,0.0219,0.0192,0.0156,0.0121,0.008,-0.0005,0.0011,-0.0052,-0.0101,-0.0104,-0.0136,-0.0169,-0.0193,-0.0181,-0.0158,-0.0157,-0.0157,-0.0157,0,0.0224,0.0243,0.0266,0.0269,0.0277,0.0286,0.029,0.0279,0.0293,0.0265,0.0268,0.0212,0.0192,0.0107,0.0011,0.0001,-0.0084,-0.0113,-0.0183,-0.0185,-0.0198,-0.02,-0.0174,-0.0174,-0.0174,-0.0174,-0.0174,0,0.0256,0.0276,0.0283,0.0296,0.0331,0.0321,0.0352,0.0346,0.0349,0.0373,0.0309,0.0318,0.0198,0.0137,0.0034,-0.0076,-0.0069,-0.0173,-0.0197,-0.0177,-0.0177,-0.0187,-0.0188,-0.0176,-0.0176,-0.0175,-0.0175,0,0.0285,0.0288,0.0319,0.0336,0.0345,0.0369,0.04,0.0426,0.0416,0.0446,0.0444,0.0401,0.0323,0.0198,0.0066,-0.0036,-0.0148,-0.0192,-0.0157,-0.0177,-0.0239,-0.0236,-0.0277,-0.0277,-0.0278,-0.0279,-0.0279,0,0.0301,0.0318,0.0351,0.0375,0.0383,0.0416,0.0446,0.0456,0.0491,0.0505,0.0533,0.0474,0.0451,0.0253,0.0066,-0.0114,-0.0143,-0.0227,-0.0246,-0.0229,-0.0249,-0.0245,-0.0242,-0.0243,-0.0243,-0.0243,-0.0243,0,0.0333,0.0342,0.0367,0.0417,0.0453,0.0499,0.0544,0.0587,0.0608,0.0641,0.0682,0.0669,0.0487,0.0323,0.0068,-0.0061,-0.0199,-0.0236,-0.0227,-0.0216,-0.0201,-0.0219,-0.0216,-0.0244,-0.0244,-0.0244,-0.0244,-0.0244,0.0358,0.0382,0.0416,0.0464,0.051,0.0577,0.0629,0.0689,0.0762,0.0813,0.0798,0.0771,0.0579,0.0263,0.005,-0.0194,-0.0191,-0.0283,-0.0282,-0.028,-0.0263,-0.0249,-0.0299,-0.0299,-0.0299,-0.0299,-0.0299,0,0.0388,0.0416,0.0463,0.0522,0.0577,0.0598,0.0694,0.074,0.084,0.0879,0.091,0.0721,0.0544,0.0309,-0.0042,-0.0244,-0.0264,-0.0318,-0.0291,-0.0288,-0.0287,-0.0269,-0.0307,-0.0308,-0.0308,-0.0309,0,0,0.0406,0.0451,0.0473,0.0564,0.0611,0.0694,0.0756,0.0824,0.087,0.0906,0.0895,0.0873,0.0604,0.0356,0.0087,-0.0112,-0.0161,-0.016,-0.0134,-0.0069,-0.0065,-0.0249,-0.0217,0,0,0,0,0]}],[{"header":{"parameterUnit":"m.s-1","parameterCategory":2,"la1":30.2991,"la2":30.254,"lo1":-89.0895,"lo2":-89.0444,"dy":0.0017,"dx":0.0017,"nx":28,"ny":28,"refTime":"2024-10-02T21:00:00:Z","depth":"4","parameterNumber":2,"parameterNumberName":"U-component_of_CURRENTS"},"data":[0,0,0,0,0,0,0,0,0,0,0,0,0,0,0,0,0,0,0,0,0,0,0,0,0,0,0,0,0,0,0,0,0,0,0,0,0,0,0,0,0,0,0,0,0,0,0,0,0,0,0,0,0,0,0,0,0,0,0.1292,0.1292,0,0.133,0.133,0.1331,0.1376,0.1377,0.1377,0.1378,0.1451,0.1452,0.1454,0,0,0,0,0,0,0,0,0,0,0,0,0,0.128,0.128,0.1291,0.1292,0.1292,0.133,0.133,0.1331,0.1376,0.1377,0.1378,0.1378,0.1451,0.1452,0.1454,0,0,0,0,0,0,0,0,0,0,0,0,0,0.1299,0.128,0.1291,0.1319,0.1322,0.1329,0.133,0.1331,0.1376,0.1377,0.1378,0.1379,0.145,0.1452,0.1454,0.1448,0,0,0.146,0.1461,0,0,0,0,0,0,0,0,0.1298,0.1299,0.1314,0.1317,0.132,0.1348,0.1353,0.1371,0.1376,0.1356,0.1378,0.1379,0.1419,0.1423,0.1429,0.1451,0.1454,0.146,0.1462,0.1463,0.1463,0,0,0,0,0,0,0,0.1296,0.1298,0.1307,0.1315,0.1318,0.1337,0.134,0.1357,0.1383,0.1358,0.1361,0.1364,0.1421,0.1427,0.1431,0.1455,0.146,0.1462,0.1463,0.1464,0.1564,0.1565,0,0,0,0,0,0,0.1288,0.1297,0.1306,0.1308,0.131,0.1336,0.134,0.1339,0.1382,0.1389,0.1363,0.1366,0.1423,0.1429,0.1434,0.1506,0.1463,0.1464,0.1466,0.1563,0.1564,0.1566,0,0,0,0,0,0,0.1287,0.1288,0.1305,0.1303,0.1307,0.1335,0.1334,0.1339,0.1373,0.1385,0.1393,0.1394,0.1424,0.1431,0.1479,0.1507,0.1465,0.1467,0.1561,0.1563,0.1565,0.1602,0,0,0,0,0,0,0.1287,0.1288,0.1301,0.1302,0.1306,0.1328,0.1333,0.1339,0.1371,0.1376,0.1414,0.142,0.1425,0.1476,0.1481,0.1509,0.1469,0.1559,0.1562,0.1565,0.1599,0.1605,0.161,0,0,0,0,0,0.1286,0.1292,0.1301,0.1304,0.1318,0.1329,0.1333,0.1357,0.1372,0.1391,0.1422,0.142,0.1497,0.1479,0.1484,0.1513,0.1558,0.1561,0.1564,0.1596,0.1604,0.161,0,0,0,0,0,0,0.1295,0.1297,0.1307,0.1315,0.1331,0.1337,0.1357,0.1371,0.1409,0.1425,0.1438,0.1446,0.1498,0.1502,0.1482,0.1551,0.1527,0.1532,0.1549,0.1557,0.1562,0.1557,0.1471,0,0,0,0,0,0.1301,0.1311,0.1315,0.1328,0.1335,0.1352,0.1366,0.1382,0.1406,0.1425,0.1453,0.1484,0.151,0.1531,0.1554,0.1591,0.1592,0.1614,0.162,0.1625,0.1625,0.1649,0.1656,0.1577,0.1577,0.1576,0,0,0.1309,0.1313,0.132,0.1332,0.1346,0.1362,0.1365,0.1392,0.1418,0.1426,0.1485,0.1507,0.1525,0.1569,0.1592,0.1579,0.1651,0.1629,0.1633,0.1631,0.1653,0.1661,0.1667,0.1579,0.1578,0.1578,0,0,0.1318,0.1332,0.1341,0.1356,0.138,0.139,0.1403,0.1427,0.1456,0.1503,0.1518,0.1558,0.1603,0.162,0.1631,0.1682,0.168,0.1697,0.1722,0.1746,0.1752,0.1758,0.1776,0.1783,0.17,0.17,0.17,0,0.1332,0.1338,0.1348,0.1361,0.1379,0.1404,0.1422,0.1449,0.1493,0.1519,0.1531,0.1605,0.1623,0.1665,0.1687,0.1694,0.1707,0.1693,0.1752,0.1757,0.1762,0.178,0.1787,0.1702,0.1702,0.1701,0.1701,0,0.1336,0.1358,0.1366,0.139,0.1412,0.1434,0.1463,0.1503,0.1541,0.1566,0.1631,0.1659,0.17,0.1715,0.1718,0.1768,0.1766,0.1755,0.173,0.1772,0.1789,0.1796,0.1705,0.1704,0.1703,0.1703,0,0,0.1322,0.1362,0.1369,0.1388,0.1431,0.1444,0.1496,0.1539,0.1576,0.1631,0.1678,0.1729,0.1751,0.1765,0.178,0.1802,0.1852,0.18,0.18,0.1812,0.1909,0.1804,0.1801,0.1856,0.1857,0.1858,0.1909,0,0.1328,0.1354,0.1377,0.1418,0.1433,0.1478,0.1521,0.157,0.1617,0.1672,0.1712,0.1765,0.1768,0.1798,0.1822,0.1848,0.1871,0.1839,0.1873,0.1874,0.1768,0.1805,0.1862,0.1914,0.1915,0.1916,0.1917,0,0.1318,0.134,0.1376,0.1431,0.1444,0.148,0.155,0.1593,0.1669,0.1709,0.1765,0.1798,0.1856,0.1846,0.1909,0.1893,0.1907,0.1918,0.192,0.1809,0.178,0.1862,0.1929,0.1928,0.1927,0.1926,0.1926,0,0.1285,0.1337,0.1369,0.1387,0.1453,0.1491,0.1537,0.161,0.1651,0.1738,0.1778,0.1844,0.189,0.192,0.1955,0.1941,0.2013,0.199,0.1906,0.1899,0.1963,0.1956,0.2025,0.2025,0.2025,0.2025,0.2025,0,0.1261,0.129,0.1362,0.1377,0.1426,0.1482,0.1543,0.1598,0.1678,0.1721,0.1799,0.1836,0.1914,0.1962,0.1976,0.1964,0.2032,0.1913,0.1904,0.1978,0.1973,0.1968,0.196,0.2027,0.2027,0.2026,0.2026,0,0.1212,0.1261,0.13,0.138,0.141,0.1447,0.154,0.1575,0.1666,0.1724,0.1757,0.1855,0.1913,0.1974,0.2029,0.1981,0.1985,0.1964,0.2053,0.2048,0.1851,0.1845,0.1863,0.1859,0.1857,0.1854,0.1852,0,0.1185,0.1201,0.1291,0.1317,0.1358,0.1423,0.1462,0.1559,0.1593,0.1714,0.173,0.1829,0.188,0.1875,0.1947,0.1968,0.1947,0.1935,0.1873,0.1844,0.1834,0.1833,0.1831,0.1848,0.1847,0.1846,0.1845,0,0.1131,0.1178,0.121,0.1265,0.1313,0.1353,0.1418,0.1431,0.1534,0.1632,0.1659,0.1692,0.1757,0.1799,0.1839,0.1847,0.1931,0.1905,0.191,0.1851,0.1826,0.1819,0.1821,0.1836,0.1837,0.1838,0.1839,0,0.1096,0.1106,0.1159,0.1196,0.1252,0.1262,0.1306,0.1341,0.1387,0.1517,0.1523,0.163,0.173,0.1738,0.1771,0.1778,0.1745,0.1679,0.1695,0.1707,0.1634,0.1578,0.1504,0,0,0,0,0,0.1051,0.1051,0.1082,0.111,0.1162,0.1194,0.1265,0.1309,0.1407,0.1386,0.1449,0.1498,0.1543,0.1604,0.1581,0.1712,0.1759,0.1678,0.1693,0.1781,0.1793,0.1722,0,0,0,0,0,0,0.1019,0.1046,0.105,0.1031,0.1038,0.1077,0.1118,0.1185,0.1178,0.1288,0.1323,0.1411,0.1484,0.1543,0.1554,0.1573,0.1552,0.1752,0.1748,0.1775,0.1785,0.1794,0.1725,0,0,0,0,0]},{"header":{"parameterUnit":"m.s-1","parameterCategory":2,"la1":30.2991,"la2":30.254,"lo1":-89.0895,"lo2":-89.0444,"dy":0.0017,"dx":0.0017,"nx":28,"ny":28,"refTime":"2024-10-02T21:00:00:Z","depth":"4","parameterNumber":3,"parameterNumberName":"V-component_of_CURRENTS"},"data":[0,0,0,0,0,0,0,0,0,0,0,0,0,0,0,0,0,0,0,0,0,0,0,0,0,0,0,0,0,0,0,0,0,0,0,0,0,0,0,0,0,0,0,0,0,0,0,0,0,0,0,0,0,0,0,0,0,0,0.007,0.007,0,0.0048,0.0048,0.0048,0.003,0.003,0.003,0.003,-0.0013,-0.0014,-0.0015,0,0,0,0,0,0,0,0,0,0,0,0,0,0.007,0.0071,0.007,0.007,0.007,0.0048,0.0048,0.0047,0.003,0.003,0.003,0.003,-0.0013,-0.0014,-0.0016,0,0,0,0,0,0,0,0,0,0,0,0,0,0.006,0.0071,0.007,0.006,0.0058,0.0048,0.0048,0.0047,0.003,0.003,0.003,0.003,-0.0012,-0.0014,-0.0016,-0.0024,0,0,-0.0021,-0.0021,0,0,0,0,0,0,0,0,0.0061,0.006,0.0061,0.006,0.0059,0.0043,0.0032,0.0023,0.003,0.0039,0.003,0.003,0.0005,0.0001,-0.0004,-0.0026,-0.0028,-0.0021,-0.0022,-0.0023,-0.0023,0,0,0,0,0,0,0,0.0062,0.0061,0.006,0.0061,0.006,0.0047,0.0045,0.003,0.0021,0.0038,0.0037,0.0037,0.0004,-0.0002,-0.0005,-0.0029,-0.0021,-0.0022,-0.0023,-0.0024,-0.0078,-0.0078,0,0,0,0,0,0,0.0069,0.0062,0.0061,0.006,0.0061,0.0047,0.0045,0.0047,0.0022,0.0018,0.0037,0.0036,0.0,-0.0003,-0.0007,-0.0023,-0.0023,-0.0024,-0.0025,-0.0077,-0.0078,-0.0079,0,0,0,0,0,0,0.0069,0.0069,0.0062,0.0061,0.0059,0.0048,0.0049,0.0047,0.0041,0.0021,0.0017,0.0034,0.0,-0.0005,-0.0023,-0.0025,-0.0025,-0.0026,-0.0077,-0.0078,-0.0078,-0.0052,0,0,0,0,0,0,0.0069,0.0069,0.0072,0.0062,0.006,0.0056,0.0049,0.0046,0.0042,0.004,0.0018,0.0013,-0.0,-0.002,-0.0024,-0.0027,-0.0028,-0.0076,-0.0077,-0.0078,-0.0052,-0.0052,-0.0051,0,0,0,0,0,0.0069,0.0075,0.0073,0.0072,0.0065,0.0057,0.0054,0.0044,0.0042,0.0039,0.0022,0.0014,-0.0029,-0.0022,-0.0026,-0.0029,-0.0076,-0.0077,-0.0078,-0.0053,-0.0052,-0.0051,0,0,0,0,0,0,0.0075,0.0073,0.0071,0.0075,0.0067,0.0054,0.0054,0.0046,0.0031,0.0031,0.0011,0.0005,-0.0012,-0.0027,-0.0018,-0.0049,-0.0055,-0.0057,-0.0034,-0.0033,-0.0033,-0.0019,-0.0029,0,0,0,0,0,0.0079,0.0084,0.0076,0.0079,0.0078,0.0066,0.0062,0.0055,0.0041,0.0035,0.0018,-0.0002,-0.0021,-0.003,-0.0049,-0.0064,-0.0076,-0.0071,-0.007,-0.007,-0.0063,-0.0084,-0.0085,-0.0082,-0.0082,-0.0082,0,0,0.0083,0.0083,0.0085,0.0081,0.0076,0.0074,0.0063,0.0059,0.0055,0.0032,0.0021,0.0,-0.0025,-0.0042,-0.0051,-0.0053,-0.0078,-0.0071,-0.007,-0.0064,-0.0085,-0.0086,-0.0086,-0.0083,-0.0082,-0.0082,0,0,0.0093,0.0093,0.01,0.0095,0.0089,0.0081,0.0081,0.0068,0.006,0.0046,0.0027,0.0008,-0.0021,-0.0039,-0.0051,-0.006,-0.0075,-0.007,-0.0054,-0.0075,-0.0075,-0.0075,-0.0092,-0.0093,-0.0069,-0.0069,-0.0069,0,0.0098,0.0106,0.0099,0.0102,0.0103,0.0087,0.0091,0.0079,0.006,0.0056,0.0045,0.0005,-0.0018,-0.0036,-0.0042,-0.0057,-0.007,-0.0051,-0.0073,-0.0073,-0.0074,-0.0091,-0.0093,-0.0068,-0.0068,-0.0068,-0.0068,0,0.011,0.0117,0.012,0.0121,0.0118,0.012,0.0106,0.01,0.0088,0.0075,0.0055,0.0022,0.0001,-0.0015,-0.0032,-0.0049,-0.0057,-0.0068,-0.0069,-0.0072,-0.009,-0.0093,-0.0066,-0.0066,-0.0067,-0.0067,0,0,0.0125,0.0129,0.0132,0.0139,0.013,0.0132,0.0127,0.012,0.0125,0.0094,0.0094,0.005,0.0036,0.002,-0.0006,-0.0029,-0.005,-0.0048,-0.005,-0.0056,-0.0093,-0.0095,-0.0098,-0.0064,-0.0064,-0.0065,-0.0104,0,0.0138,0.0154,0.015,0.0164,0.0172,0.0161,0.0161,0.0152,0.0139,0.0133,0.0096,0.0084,0.0047,0.0041,0.0011,-0.003,-0.0056,-0.0038,-0.0098,-0.0099,-0.0093,-0.0101,-0.0066,-0.0107,-0.0107,-0.0108,-0.0108,0,0.0153,0.0164,0.0181,0.0197,0.02,0.0204,0.0212,0.021,0.0194,0.0183,0.0161,0.0137,0.0101,0.0071,-0.0001,0.0013,-0.0038,-0.0076,-0.0078,-0.0088,-0.0105,-0.0105,-0.0114,-0.0113,-0.0113,-0.0112,-0.0112,0,0.0172,0.0188,0.0206,0.0209,0.0218,0.0228,0.0233,0.0227,0.0239,0.0219,0.0225,0.0176,0.0162,0.0091,0.0014,0.0006,-0.0065,-0.0085,-0.0136,-0.0136,-0.0133,-0.0133,-0.014,-0.014,-0.014,-0.014,-0.014,0,0.0189,0.0205,0.0219,0.0228,0.0258,0.0255,0.0282,0.0279,0.0286,0.0305,0.0256,0.026,0.0166,0.0117,0.0032,-0.0054,-0.0052,-0.0131,-0.0146,-0.0123,-0.0121,-0.0136,-0.0135,-0.0141,-0.0141,-0.0141,-0.014,0,0.0204,0.0211,0.0237,0.0257,0.0268,0.0289,0.0324,0.0346,0.0342,0.0367,0.0367,0.0329,0.0262,0.0165,0.0056,-0.0019,-0.0109,-0.0143,-0.0102,-0.0115,-0.0172,-0.0169,-0.0202,-0.0202,-0.0203,-0.0203,-0.0203,0,0.0211,0.0225,0.0261,0.0283,0.0294,0.0327,0.0355,0.037,0.0397,0.041,0.0428,0.0382,0.0338,0.0194,0.0078,-0.0078,-0.0108,-0.0158,-0.0178,-0.0166,-0.0178,-0.0175,-0.0172,-0.0204,-0.0204,-0.0204,-0.0204,0,0.0227,0.024,0.0262,0.0308,0.0343,0.0386,0.0426,0.0454,0.0475,0.0478,0.0482,0.0408,0.0333,0.0209,0.0089,-0.0027,-0.0127,-0.0163,-0.0163,-0.0182,-0.0169,-0.0179,-0.0176,-0.0205,-0.0205,-0.0205,-0.0205,0,0.0238,0.0257,0.0287,0.0327,0.0378,0.0428,0.045,0.0484,0.0512,0.0527,0.0529,0.0443,0.0397,0.0235,0.0125,0.0012,-0.0028,-0.0078,-0.0084,-0.0085,-0.0046,-0.0011,-0.0009,0,0,0,0,0,0.0245,0.0263,0.0304,0.0348,0.0402,0.0428,0.049,0.0509,0.0537,0.0547,0.054,0.0469,0.0317,0.0255,0.0143,0.0101,-0.0058,-0.0038,-0.0123,-0.0211,-0.021,-0.0185,0,0,0,0,0,0,0.0248,0.0282,0.0299,0.0359,0.039,0.045,0.0491,0.0512,0.0519,0.0532,0.046,0.0423,0.028,0.0377,0.0134,0.01,0.0027,-0.0107,-0.011,-0.0212,-0.0211,-0.021,-0.0184,0,0,0,0,0]}]]